Weather History for KGBD - June, 2013

Change the Weather History Date:

Saturday, June 1, 2013

  Actual Average Record
Temperature  
Mean Temperature 63 °F -  
Max Temperature 73 °F 80 °F 100 °F (2002)
Min Temperature 53 °F 57 °F 44 °F (1964)
Degree Days  
Heating Degree Days 2    
Growing Degree Days 13 (Base 50)    
Moisture  
Dew Point 46 °F    
Average Humidity 54    
Maximum Humidity 72    
Minimum Humidity 41    
Precipitation  
Precipitation 0.00 in - - ()
Sea Level Pressure  
Sea Level Pressure 29.97 in    
Wind  
Wind Speed 15 mph (NNW)    
Max Wind Speed 23 mph    
Max Gust Speed 29 mph    
Visibility 10 miles    
Events      
Averages and records for this station are not official NWS values.
T = Trace of Precipitation, MM = Missing Value Source: NWS Daily Summary

Daily Weather History Graph

Daily Weather History Graph

Search for Another Location

Airport or City:

Trip Planner

Search our weather history database for the weather conditions in past years. The results will help you decide how hot, cold, wet, or windy it might be!

Date:

Astronomy

Jun. 01, 2013 Rise Set
Actual Time 6:13 AM CDT 8:53 PM CDT
Civil Twilight 5:42 AM CDT 9:24 PM CDT
Nautical Twilight 5:03 AM CDT 10:03 PM CDT
Astronomical Twilight 4:20 AM CDT 10:47 PM CDT
Moon 2:04 AM CDT (6/1) 2:29 PM CDT (6/1)
Length of Visible Light 15h 42m
Length of Day
14h 40m
Last Quarter, 40% of the Moon is Illuminated
Jun 1
Last Quarter
Jun 8
New
Jun 16
First Quarter
Jun 23
Full
Jun 29
Last Quarter

Hourly Weather History & Observations

Time (CDT) Temp. Dew Point Humidity Pressure Visibility Wind Dir Wind Speed Gust Speed Precip Events Conditions
12:15 AM 68.0 °F 44.6 °F 43% 29.82 in 10.0 mi North 11.5 mph - N/A   Mostly Cloudy
12:35 AM 66.2 °F 44.6 °F 46% 29.84 in 10.0 mi North 20.7 mph 27.6 mph N/A   Scattered Clouds
12:55 AM 64.4 °F 44.6 °F 49% 29.83 in 10.0 mi North 20.7 mph 26.5 mph N/A   Partly Cloudy
1:15 AM 64.4 °F 42.8 °F 45% 29.84 in 10.0 mi North 18.4 mph 24.2 mph N/A   Clear
1:35 AM 62.6 °F 42.8 °F 48% 29.86 in 10.0 mi North 17.3 mph 24.2 mph N/A   Clear
1:55 AM 62.6 °F 42.8 °F 48% 29.86 in 10.0 mi North 17.3 mph - N/A   Clear
2:15 AM 60.8 °F 42.8 °F 52% 29.86 in 10.0 mi North 16.1 mph 23.0 mph N/A   Clear
2:35 AM 59.0 °F 42.8 °F 55% 29.87 in 10.0 mi NNW 12.7 mph - N/A   Clear
2:55 AM 57.2 °F 42.8 °F 59% 29.88 in 10.0 mi NNW 8.1 mph - N/A   Clear
3:15 AM 55.4 °F 42.8 °F 63% 29.88 in 10.0 mi NNW 6.9 mph - N/A   Clear
3:35 AM 55.4 °F 42.8 °F 63% 29.88 in 10.0 mi NW 9.2 mph - N/A   Clear
3:55 AM 55.4 °F 42.8 °F 63% 29.88 in 10.0 mi NW 10.4 mph - N/A   Clear
4:15 AM 55.4 °F 42.8 °F 63% 29.88 in 10.0 mi NW 10.4 mph - N/A   Clear
4:35 AM 55.4 °F 42.8 °F 63% 29.88 in 10.0 mi NW 11.5 mph - N/A   Clear
4:55 AM 53.6 °F 42.8 °F 67% 29.88 in 10.0 mi NW 11.5 mph - N/A   Clear
5:15 AM 55.4 °F 42.8 °F 63% 29.88 in 10.0 mi NW 12.7 mph - N/A   Clear
5:35 AM 53.6 °F 42.8 °F 67% 29.88 in 10.0 mi NW 13.8 mph - N/A   Clear
5:55 AM 55.4 °F 42.8 °F 63% 29.88 in 10.0 mi NW 16.1 mph - N/A   Clear
6:15 AM 55.4 °F 42.8 °F 63% 29.88 in 10.0 mi NW 19.6 mph 26.5 mph N/A   Clear
6:35 AM 55.4 °F 42.8 °F 63% 29.90 in 10.0 mi NW 16.1 mph 26.5 mph N/A   Clear
6:55 AM 55.4 °F 42.8 °F 63% 29.91 in 10.0 mi NW 15.0 mph - N/A   Clear
7:15 AM 55.4 °F 44.6 °F 67% 29.92 in 10.0 mi WNW 15.0 mph 20.7 mph N/A   Clear
7:35 AM 57.2 °F 44.6 °F 63% 29.92 in 10.0 mi NW 17.3 mph - N/A   Clear
7:55 AM 57.2 °F 44.6 °F 63% 29.93 in 10.0 mi WNW 16.1 mph 20.7 mph N/A   Clear
8:15 AM 59.0 °F 44.6 °F 59% 29.94 in 10.0 mi WNW 19.6 mph 24.2 mph N/A   Clear
8:35 AM 60.8 °F 44.6 °F 55% 29.94 in 10.0 mi NW 18.4 mph 25.3 mph N/A   Clear
8:55 AM 59.0 °F 44.6 °F 59% 29.95 in 10.0 mi WNW 17.3 mph 25.3 mph N/A   Clear
9:15 AM 59.0 °F 44.6 °F 59% 29.95 in 10.0 mi NW 18.4 mph 27.6 mph N/A   Clear
9:35 AM 60.8 °F 44.6 °F 55% 29.96 in 10.0 mi NW 19.6 mph - N/A   Clear
9:55 AM 60.8 °F 44.6 °F 55% 29.97 in 10.0 mi NW 13.8 mph 25.3 mph N/A   Mostly Cloudy
10:15 AM 62.6 °F 46.4 °F 55% 29.97 in 10.0 mi NNW 19.6 mph 25.3 mph N/A   Overcast
10:35 AM 62.6 °F 46.4 °F 55% 29.97 in 10.0 mi NNW 13.8 mph 24.2 mph N/A   Overcast
10:55 AM 62.6 °F 46.4 °F 55% 29.98 in 10.0 mi NW 15.0 mph 25.3 mph N/A   Overcast
11:15 AM 64.4 °F 46.4 °F 52% 29.98 in 10.0 mi NNW 21.9 mph 27.6 mph N/A   Overcast
11:35 AM 66.2 °F 48.2 °F 52% 29.99 in 10.0 mi NNW 18.4 mph 24.2 mph N/A   Overcast
11:55 AM 64.4 °F 48.2 °F 56% 29.99 in 10.0 mi NNW 18.4 mph 23.0 mph N/A   Overcast
12:15 PM 66.2 °F 48.2 °F 52% 29.99 in 10.0 mi NNW 17.3 mph 26.5 mph N/A   Overcast
12:35 PM 68.0 °F 48.2 °F 49% 29.99 in 10.0 mi NNW 18.4 mph - N/A   Overcast
12:55 PM 69.8 °F 48.2 °F 46% 30.00 in 10.0 mi North 21.9 mph 26.5 mph N/A   Overcast
1:15 PM 69.8 °F 48.2 °F 46% 30.00 in 10.0 mi North 18.4 mph 25.3 mph N/A   Overcast
1:35 PM 68.0 °F 48.2 °F 49% 30.00 in 10.0 mi NNW 18.4 mph 24.2 mph N/A   Overcast
1:55 PM 69.8 °F 48.2 °F 46% 29.99 in 10.0 mi NW 18.4 mph 24.2 mph N/A   Overcast
2:15 PM 69.8 °F 48.2 °F 46% 29.99 in 10.0 mi NNW 17.3 mph 24.2 mph N/A   Overcast
2:35 PM 71.6 °F 48.2 °F 43% 30.00 in 10.0 mi NNW 17.3 mph 24.2 mph N/A   Mostly Cloudy
2:55 PM 71.6 °F 48.2 °F 43% 29.99 in 10.0 mi NNW 19.6 mph 25.3 mph N/A   Scattered Clouds
3:15 PM 71.6 °F 48.2 °F 43% 29.99 in 10.0 mi NNW 13.8 mph 25.3 mph N/A   Partly Cloudy
3:35 PM 71.6 °F 48.2 °F 43% 30.00 in 10.0 mi North 19.6 mph 26.5 mph N/A   Partly Cloudy
3:55 PM 73.4 °F 48.2 °F 41% 30.00 in 10.0 mi NW 18.4 mph 25.3 mph N/A   Partly Cloudy
4:15 PM 73.4 °F 48.2 °F 41% 30.00 in 10.0 mi NNW 17.3 mph 25.3 mph N/A   Partly Cloudy
4:35 PM 73.4 °F 48.2 °F 41% 30.00 in 10.0 mi North 15.0 mph 26.5 mph N/A   Partly Cloudy
4:55 PM 73.4 °F 48.2 °F 41% 30.00 in 10.0 mi NNW 23.0 mph - N/A   Partly Cloudy
5:15 PM 73.4 °F 48.2 °F 41% 30.00 in 10.0 mi North 18.4 mph 28.8 mph N/A   Clear
5:35 PM 71.6 °F 48.2 °F 43% 30.00 in 10.0 mi NNW 17.3 mph 25.3 mph N/A   Clear
5:55 PM 71.6 °F 48.2 °F 43% 30.01 in 10.0 mi NNW 18.4 mph 23.0 mph N/A   Clear
6:15 PM 71.6 °F 46.4 °F 41% 30.02 in 10.0 mi NNW 16.1 mph 24.2 mph N/A   Mostly Cloudy
6:35 PM 69.8 °F 46.4 °F 43% 30.02 in 10.0 mi NNW 17.3 mph 24.2 mph N/A   Overcast
6:55 PM 69.8 °F 46.4 °F 43% 30.03 in 10.0 mi NNW 15.0 mph - N/A   Mostly Cloudy
7:15 PM 69.8 °F 46.4 °F 43% 30.04 in 10.0 mi North 19.6 mph 23.0 mph N/A   Mostly Cloudy
7:35 PM 68.0 °F 46.4 °F 46% 30.04 in 10.0 mi NNW 15.0 mph 20.7 mph N/A   Mostly Cloudy
7:55 PM 66.2 °F 46.4 °F 49% 30.05 in 10.0 mi North 15.0 mph 24.2 mph N/A   Mostly Cloudy
8:15 PM 64.4 °F 46.4 °F 52% 30.06 in 10.0 mi North 13.8 mph 21.9 mph N/A   Scattered Clouds
8:35 PM 62.6 °F 46.4 °F 55% 30.07 in 10.0 mi North 10.4 mph - N/A   Partly Cloudy
8:55 PM 62.6 °F 46.4 °F 55% 30.08 in 10.0 mi NNW 8.1 mph - N/A   Clear
9:15 PM 60.8 °F 46.4 °F 59% 30.08 in 10.0 mi North 6.9 mph - N/A   Clear
9:35 PM 57.2 °F 46.4 °F 67% 30.09 in 10.0 mi North 6.9 mph - N/A   Clear
9:55 PM 55.4 °F 46.4 °F 72% 30.10 in 10.0 mi NNE 8.1 mph - N/A   Clear
10:15 PM 55.4 °F 46.4 °F 72% 30.10 in 10.0 mi NNE 6.9 mph - N/A   Clear
10:35 PM 57.2 °F 46.4 °F 67% 30.10 in 10.0 mi NNE 9.2 mph - N/A   Clear
10:55 PM 57.2 °F 46.4 °F 67% 30.11 in 10.0 mi NE 6.9 mph - N/A   Clear
11:15 PM 55.4 °F 46.4 °F 72% 30.12 in 10.0 mi NE 6.9 mph - N/A   Clear
11:35 PM 55.4 °F 46.4 °F 72% 30.11 in 10.0 mi NE 5.8 mph - N/A   Clear
11:55 PM 55.4 °F 46.4 °F 72% 30.12 in 10.0 mi NNE 6.9 mph - N/A   Clear